Regional Weather Roundup
Issued by NWS Raleigh/Durham, NC

Home | Current Version | Previous Version | Text Only | Print | Product List | Glossary On
Versions: 1 2 3 4 5 6 7 8 9 10 11 12 13 14 15 16 17 18 19 20 21 22 23 24 25 26 27 28 29 30 31 32 33 34 35 36 37 38 39 40 41 42 43 44 45 46 47 48 49 50
000
ASUS42 KRAH 051110
RWRRAH
NORTH CAROLINA WEATHER ROUNDUP
NATIONAL WEATHER SERVICE RALEIGH NC
700 AM EDT THU MAY 05 2016

NOTE: "FAIR" INDICATES FEW OR NO CLOUDS BELOW 12,000 FEET WITH NO
SIGNIFICANT WEATHER AND/OR OBSTRUCTIONS TO VISIBILITY.

NCZ001-053-055-056-065-067-051200-
WESTERN NORTH CAROLINA

CITY           SKY/WX    TMP DP  RH WIND       PRES   REMARKS
ASHEVILLE      LGT RAIN  44  37  76 NW17G28   29.66S
JEFFERSON      CLOUDY    39  33  80 NW9       29.64R WCI  33
MORGANTON      LGT RAIN  50  43  77 CALM      29.68R
HICKORY        CLOUDY    52  39  61 NW9       29.62R
RUTHERFORDTON  CLOUDY    51  37  57 N9G16     29.65R
MOUNT AIRY     LGT RAIN  51  47  85 N3        29.64R
BOONE          CLOUDY    40  34  79 N10G17    29.66R WCI  34
$$

NCZ021-022-025-041-071-084-088-051200-
CENTRAL NORTH CAROLINA

CITY           SKY/WX    TMP DP  RH WIND       PRES   REMARKS
CHARLOTTE      MOCLDY    53  45  74 N7        29.61R
GREENSBORO     CLOUDY    52  49  89 N9        29.58S
WINSTON-SALEM  RAIN      50  47  89 N7        29.61F FOG
RALEIGH-DURHAM FOG       57  56  96 NE5       29.55S VSB 1/2
FORT BRAGG     PTCLDY    54  50  85 N5        29.52F
FAYETTEVILLE   CLEAR     56  51  84 N6        29.53S
BURLINGTON     CLOUDY    55  52  89 N10       29.58R
LAURINBURG     CLOUDY    55  51  86 NW6       29.54S
$$

NCZ011-015-027-028-043-044-047-080-103-051200-
NORTHEASTERN NORTH CAROLINA

CITY           SKY/WX    TMP DP  RH WIND       PRES   REMARKS
ROCKY MT-WILSO CLOUDY    58  54  86 NE8       29.56S
GREENVILLE     CLOUDY    57  55  94 NE6       29.59S
WASHINGTON     CLOUDY    57  55  91 NE3       29.55S
ELIZABETH CITY CLOUDY    53  52  96 NE15      29.57S FOG
MANTEO         CLOUDY    53  53 100 NE17      29.56S FOG
CAPE HATTERAS  CLOUDY    56  55  97 NE8G16    29.53S
$$

NCZ078-087-090-091-093-098-101-051200-
SOUTHEASTERN NORTH CAROLINA

CITY           SKY/WX    TMP DP  RH WIND       PRES   REMARKS
LUMBERTON      CLOUDY    56  54  93 CALM      29.52F FOG
GOLDSBORO      CLOUDY    60  60 100 E7        29.53R
KINSTON        CLOUDY    59  59 100 NE5       29.56R FOG
KENANSVILLE    CLOUDY    62  61  97 CALM      29.55R FOG
NEW BERN       CLOUDY    59  55  87 E9        29.55S
CHERRY POINT   MOCLDY    60  56  86 NE9       29.54S
BEAUFORT       CLOUDY    60  57  89 NE8       29.52S
JACKSONVILLE   CLOUDY    63  60  90 NE7       29.53R
WILMINGTON     CLOUDY    61  60  97 W5        29.53S FOG
$$




USA.gov is the U.S. government's official web portal to all federal, state and local government web resources and services.